Wind_Speed
12 11 10 11 11 15 19 30 39 44 48 49 55 61 67 65 46 53 31 37 31 19 12 16 18 23 29 28 14 20 13 8 8 9 7 5 4 5 5 11 7 8 8 5 7 6 11 13 11 12 14 6 9 12
2 7 11 11 13 17 24 32 37 42 44 47 53 69 64 64 53 34 34 38 25 14 6 11 8 5 9 31 30 25 18 15 10 7 5 5 3 2 8 6 6 6 6 4 7 6 4 27 19 24 10 11 10 13
6 4 4 11 14 19 23 29 33 37 45 50 63 62 59 59 61 39 26 33 27 9 4 6 9 11 11 17 19 15 21 16 25 15 5 4 5 6 5 9 6 6 5 4 5 10 13 17 23 10 12 12 9 11
16 10 8 11 13 20 24 22 31 46 61 61 62 52 54 55 51 46 30 22 19 11 3 6 5 24 21 13 22 22 13 18 10 19 8 4 3 8 7 9 12 10 10 13 14 14 15 17 19 20 15 15 14 12
33 28 20 25 25 31 43 42 47 56 51 50 47 50 50 52 41 31 25 21 17 8 2 7 12 17 23 17 23 24 15 20 13 7 3 5 4 3 2 2 11 10 8 8 10 16 12 20 8 17 21 22 17 18
29 27 36 43 44 43 41 46 49 44 42 40 42 45 47 46 37 31 7 14 16 18 1 2 5 17 26 21 20 32 32 20 10 9 6 10 5 8 4 7 13 21 20 21 12 16 15 15 12 9 17 18 19 21
29 33 34 34 36 37 37 44 44 45 47 45 44 44 43 42 32 15 6 10 27 14 2 3 3 7 20 19 21 20 25 25 21 16 6 7 9 8 3 10 7 18 22 20 19 15 10 14 7 8 13 18 20 19
29 34 36 35 36 37 36 36 36 37 37 38 35 31 27 27 25 8 2 9 24 13 4 3 3 5 21 12 7 16 14 18 15 14 5 8 6 4 6 13 24 21 10 13 19 19 15 10 9 9 14 17 22 25
23 26 28 32 35 34 36 36 35 34 35 35 33 30 26 12 9 10 7 12 21 8 3 4 3 3 5 5 6 5 9 3 5 5 5 8 7 8 7 17 17 16 15 17 15 15 16 14 13 16 19 22 23 27
21 23 24 27 30 31 34 36 38 35 36 36 35 12 5 12 11 22 11 10 9 11 7 3 2 2 5 3 2 6 4 2 3 5 9 4 10 15 3 5 7 10 12 13 7 9 13 13 14 19 20 17 20 22
22 22 25 26 28 29 30 33 36 40 39 16 5 4 14 18 7 2 5 6 7 3 7 6 6 1 10 2 2 2 3 3 3 2 5 5 2 5 15 11 10 8 9 9 11 13 11 12 15 16 16 19 21 24
25 23 24 30 30 31 29 31 34 23 5 5 10 14 14 5 1 2 4 1 5 3 5 5 8 10 6 2 2 2 2 1 1 1 1 2 4 21 15 9 6 4 3 4 6 6 7 9 12 16 17 18 21 25
23 24 28 30 29 27 24 28 16 13 15 12 7 5 3 2 4 4 7 4 4 2 4 4 4 6 3 3 3 2 2 2 1 2 3 3 13 22 17 9 3 2 3 4 5 5 8 11 13 20 25 26 25 25
22 22 27 33 31 24 26 19 14 7 3 4 3 3 2 1 2 2 5 4 5 2 3 7 3 2 3 2 1 2 2 1 2 3 4 7 24 23 13 6 1 4 6 8 10 11 13 16 16 17 16 19 24 29
19 21 25 31 29 8 5 3 11 10 8 7 7 4 4 5 8 10 8 1 4 2 3 5 6 3 2 2 2 2 3 5 5 4 5 20 22 12 8 7 8 10 12 15 15 16 19 20 21 23 23 25 29 31
16 17 15 13 13 10 5 10 10 11 5 6 8 7 13 5 8 11 11 7 7 2 6 5 2 3 4 3 4 6 3 6 5 6 21 19 13 12 11 11 13 15 17 18 18 19 21 23 26 28 28 29 28 25
12 15 15 14 12 7 5 8 9 7 6 5 4 18 13 5 8 14 15 18 9 4 3 3 5 7 3 4 4 5 4 5 14 15 17 19 14 14 15 17 18 19 21 22 23 25 27 29 30 30 29 23 22 20
12 11 10 10 7 8 23 10 6 7 7 9 4 12 11 13 16 14 16 22 5 5 5 5 5 8 6 4 4 4 7 13 11 13 17 20 19 19 21 23 24 25 27 27 27 27 25 24 24 24 21 18 17 15
15 16 14 14 18 8 5 6 6 6 11 6 13 11 9 20 26 24 25 19 22 17 10 7 7 5 4 6 9 12 12 10 8 13 19 21 22 24 26 26 27 28 28 26 25 25 23 22 20 18 16 13 13 11
24 23 20 17 11 6 6 6 6 7 4 4 8 20 26 18 21 28 33 30 25 12 11 6 5 10 8 11 11 10 10 8 8 14 19 23 24 25 26 27 27 26 28 27 27 26 24 23 20 16 14 13 10 9
27 18 16 17 16 10 7 5 6 6 5 5 5 13 15 25 35 32 31 24 21 10 8 14 13 12 12 13 13 13 17 17 19 17 15 19 23 25 27 27 26 27 27 26 25 24 23 22 18 14 11 10 8 6
19 18 9 8 7 7 9 10 6 5 5 6 6 7 7 9 13 20 20 20 11 18 12 12 12 12 16 20 21 23 23 24 25 25 25 25 27 27 26 24 24 26 25 23 21 20 19 16 13 11 9 8 7 6
14 6 6 6 6 7 4 6 5 6 3 3 4 4 5 6 7 9 8 11 10 15 12 12 14 15 17 19 21 23 24 25 27 26 25 25 25 23 23 22 22 21 21 20 17 16 15 13 12 11 10 9 10 10
8 5 6 6 8 4 4 5 4 4 5 3 3 4 4 5 5 7 4 5 9 11 12 12 10 11 15 18 20 19 17 17 19 20 19 18 21 21 20 20 19 19 18 15 14 13 13 12 12 12 13 13 14 14
5 9 6 6 7 5 4 4 4 4 4 4 3 4 3 3 3 3 3 3 7 9 10 10 12 13 14 14 14 17 17 15 16 18 17 15 14 13 14 15 15 14 13 12 13 14 14 14 14 13 13 13 13 13
7 11 6 4 4 4 3 3 4 4 3 3 4 3 3 3 4 4 3 3 4 5 7 8 8 9 11 10 10 13 13 13 13 15 15 14 13 11 11 10 10 11 12 12 11 11 11 11 11 11 11 12 13 13
5 6 8 8 6 8 6 7 5 4 4 4 2 2 2 4 3 3 6 4 5 7 8 8 8 9 10 11 12 12 11 10 11 11 11 10 10 10 9 9 10 10 11 11 11 10 10 10 11 11 11 11 12 13
7 7 5 6 9 9 4 3 4 4 3 3 3 4 2 2 3 4 4 9 8 8 8 8 9 9 9 8 8 8 8 9 9 9 8 10 10 10 10 10 10 10 10 10 9 10 10 10 10 11 11 12 12 12
7 5 6 7 7 9 9 5 3 3 3 3 3 2 3 3 5 8 9 8 6 5 6 6 8 8 7 7 7 7 8 7 6 5 5 5 5 8 8 8 8 8 8 8 9 9 9 10 10 10 11 12 12 13
5 6 6 6 5 5 7 5 5 6 7 7 7 8 8 7 10 11 10 7 4 4 5 6 6 6 4 3 4 5 6 6 6 4 4 4 5 7 8 8 8 8 8 8 8 8 8 9 9 10 11 12 12 12
6 5 7 8 6 6 11 17 15 12 11 9 11 9 9 7 9 10 9 7 5 5 6 5 4 2 1 3 4 5 5 6 5 5 5 5 7 8 8 8 8 8 8 8 8 8 8 9 10 11 12 13 13 14
6 6 7 4 5 11 4 2 3 4 3 4 3 4 5 4 5 8 8 6 6 6 5 4 2 2 3 4 4 5 4 5 5 5 5 6 8 8 8 8 8 8 7 7 8 8 9 10 11 12 12 13 14 14
11 13 10 7 6 6 5 4 3 3 3 2 2 3 2 3 3 7 9 9 8 7 5 3 3 2 2 3 4 4 4 5 5 5 6 7 7 7 8 8 8 8 7 8 8 9 10 10 11 12 13 14 14 15
Wind_Direction
346 8 22 40 88 100 113 156 169 176 178 178 183 183 185 180 172 183 181 180 188 202 209 217 215 201 189 197 180 178 181 199 196 202 202 177 211 223 216 190 173 187 182 181 206 227 239 152 143 208 231 234 208 204
281 40 47 68 107 118 131 137 149 159 166 174 178 178 183 176 170 170 168 183 186 174 122 193 198 268 200 190 184 175 191 182 184 188 194 205 185 203 198 207 205 206 214 246 223 231 202 185 212 221 229 233 198 196
66 140 88 102 114 128 133 139 151 163 172 171 173 179 178 175 182 174 154 178 191 181 210 240 243 221 199 207 195 178 200 196 200 199 167 204 214 172 190 225 218 228 163 197 297 260 240 216 222 225 222 217 203 198
68 82 116 144 134 143 144 152 153 151 158 166 172 171 169 176 176 185 181 138 172 181 222 259 267 246 240 262 227 216 220 203 192 200 210 186 200 219 221 236 220 221 163 205 237 257 273 265 237 226 220 218 218 193
78 105 92 111 119 132 131 139 146 156 157 162 162 163 170 171 171 166 174 191 207 181 127 240 268 242 241 235 233 222 213 195 182 181 175 212 184 189 211 253 232 200 203 205 236 244 226 262 240 225 220 219 211 187
75 87 105 114 125 134 136 140 144 146 150 152 157 159 162 165 159 157 127 181 194 216 343 326 263 200 236 256 239 209 217 222 217 214 211 228 214 215 227 240 236 219 227 223 230 239 224 255 278 226 218 215 209 198
85 90 99 105 111 117 124 131 138 142 143 150 154 155 162 175 168 154 153 173 190 188 204 301 261 229 219 243 197 201 208 216 223 229 230 231 206 204 235 247 267 241 231 233 235 237 250 251 256 261 225 207 197 180
100 99 98 99 107 118 122 129 134 134 133 143 141 143 141 149 160 161 162 177 183 167 153 260 246 216 197 199 135 189 178 195 210 220 217 218 206 236 246 245 251 246 241 228 233 231 238 259 237 227 206 198 183 175
101 114 111 114 110 113 117 120 125 129 131 133 134 136 138 143 160 178 201 167 166 161 216 215 212 182 161 102 120 119 164 175 209 210 219 204 209 222 234 232 235 227 225 258 226 227 232 234 232 224 203 190 190 181
104 106 119 125 122 117 122 123 124 125 135 142 139 124 114 168 138 126 103 148 180 214 215 247 328 323 338 170 136 159 146 151 185 205 172 223 239 241 246 283 268 259 240 240 200 235 225 218 208 193 192 193 187 183
99 114 119 123 133 128 127 130 128 126 119 119 116 83 137 147 138 135 140 182 196 216 206 182 169 316 326 226 131 16 158 153 203 171 212 197 200 305 333 305 295 278 256 237 242 244 247 246 213 191 182 182 177 175
94 90 116 127 131 135 137 138 137 135 114 114 108 114 121 172 183 201 167 177 236 213 154 165 145 167 226 258 120 95 110 166 225 355 308 83 10 339 333 330 324 304 268 245 241 249 241 213 195 181 171 164 154 157
106 97 108 133 134 134 139 146 141 167 126 128 120 139 188 193 222 223 192 208 227 149 138 140 111 148 151 56 66 83 157 140 107 60 80 49 341 343 346 340 332 71 133 121 113 126 132 135 154 161 160 167 166 159
112 109 120 132 124 133 156 166 168 104 57 64 59 114 333 8 314 3 331 1 325 338 145 112 92 78 101 86 106 153 83 181 92 59 48 357 343 341 348 351 326 77 113 114 120 130 139 149 142 140 147 148 148 143
119 120 123 144 160 125 69 83 160 33 42 43 13 31 55 13 349 341 340 319 345 246 175 104 77 81 63 111 33 120 99 70 38 25 352 331 336 354 28 67 95 106 110 108 113 119 125 129 126 124 133 139 137 135
139 133 130 138 149 168 78 53 41 52 54 51 38 351 350 360 354 352 343 340 10 102 106 66 80 93 51 32 57 20 57 46 13 346 321 336 6 31 61 80 90 94 94 98 102 108 112 116 117 118 123 124 125 129
112 141 156 155 142 128 88 52 52 52 46 42 45 18 3 336 331 338 342 332 350 52 61 81 55 39 24 56 54 22 38 353 332 345 1 26 44 55 69 81 89 94 95 97 103 106 107 112 119 122 118 120 123 127
148 142 161 197 211 110 73 62 77 60 57 23 17 9 28 19 4 9 8 17 70 88 56 61 51 38 37 40 47 7 343 336 13 23 30 46 64 82 88 90 93 95 97 99 103 107 111 114 111 107 113 118 119 118
164 149 156 149 132 96 70 53 57 88 46 45 30 25 37 25 26 27 28 38 58 77 88 66 55 42 42 19 350 344 348 355 19 42 53 66 78 84 91 96 97 94 94 95 97 95 96 96 98 103 103 103 103 101
153 139 127 114 104 85 85 64 70 79 53 73 46 53 52 45 33 36 37 39 49 57 49 51 44 30 21 11 8 7 7 43 89 69 58 65 73 84 84 86 86 90 93 94 95 95 94 93 92 94 97 98 98 95
144 129 99 90 67 69 81 69 71 105 121 62 41 41 50 37 36 32 34 40 55 47 66 55 59 52 54 54 55 59 64 80 76 79 75 71 76 80 84 88 91 90 87 84 82 82 83 80 82 82 81 80 76 65
126 133 107 69 73 70 63 40 85 96 83 97 58 49 44 27 25 26 34 43 58 38 44 53 55 62 61 60 67 74 80 85 87 89 89 89 80 79 77 75 78 77 75 71 72 72 72 70 67 62 56 50 34 15
133 107 64 53 79 69 60 43 63 33 62 57 48 47 44 45 38 31 59 40 48 24 40 56 63 71 74 75 75 77 80 83 81 80 80 81 81 79 77 76 75 73 72 67 64 63 59 53 47 39 32 23 14 5
122 62 44 53 57 82 77 45 47 61 63 49 64 68 48 46 54 69 69 53 24 35 47 54 65 70 70 72 67 66 61 70 79 78 71 72 73 69 68 68 66 66 63 58 52 46 40 33 27 20 16 12 8 5
82 18 38 47 39 74 60 44 25 54 64 45 79 71 57 50 71 73 77 74 36 43 52 60 71 74 75 74 70 69 72 72 74 76 71 67 65 62 57 54 51 49 47 41 36 30 26 22 18 14 10 8 5 2
74 24 41 45 39 66 46 71 49 51 48 71 63 71 57 71 74 80 86 99 73 63 74 73 77 85 83 82 82 79 73 73 71 72 67 59 56 52 49 45 37 31 34 33 30 25 18 14 12 9 5 1 359 359
76 59 51 42 81 89 90 72 69 66 65 51 47 48 58 73 89 100 127 99 108 95 101 103 99 103 103 95 88 83 79 73 66 60 53 48 48 50 50 46 38 31 28 23 21 19 15 12 10 10 9 7 4 4
71 51 69 28 65 48 90 63 46 51 59 43 72 44 69 70 105 130 136 137 115 101 102 109 112 110 106 97 87 73 55 41 35 31 32 35 36 34 33 32 28 23 17 16 15 16 16 17 17 16 14 12 9 7
62 82 85 50 62 55 43 43 68 61 29 40 89 94 97 94 124 125 137 141 125 115 117 120 121 114 101 84 65 47 32 28 36 31 37 40 28 19 20 18 17 16 14 13 15 16 16 18 16 14 13 11 9 5
54 44 89 58 54 50 29 42 81 85 76 90 102 107 100 107 138 150 155 158 153 150 146 141 136 118 98 66 21 8 13 23 26 32 37 28 21 10 10 11 13 15 17 19 19 17 14 11 9 7 5 3 360 356
83 71 73 62 77 79 103 93 85 83 84 79 99 110 122 132 146 155 159 160 155 149 146 144 136 115 63 355 351 352 354 1 9 17 20 17 9 6 7 6 7 9 11 11 8 6 4 3 2 360 357 354 352 350
53 69 111 104 121 155 107 107 89 87 81 73 73 105 117 127 158 185 188 184 184 182 178 175 189 261 305 321 332 340 345 353 360 2 2 1 358 357 356 356 356 357 357 355 354 353 353 352 351 350 349 348 347 346
86 87 93 104 126 177 178 144 108 100 83 97 108 133 143 157 156 195 188 187 180 179 183 205 263 268 290 313 321 329 338 342 344 347 352 352 349 347 346 346 343 341 340 341 342 341 340 340 341 341 341 341 340 340
Height
1213 1206 1199 1193 1188 1184 1180 1186 1198 1213 1229 1245 1261 1275 1290 1309 1322 1336 1345 1357 1365 1369 1373 1378 1382 1383 1387 1392 1394 1401 1414 1416 1418 1419 1416 1416 1420 1414 1409 1406 1418 1422 1426 1434 1430 1437 1430 1413 1420 1417 1407 1410 1413 1415
1212 1209 1206 1202 1199 1198 1200 1204 1212 1224 1236 1250 1261 1277 1293 1309 1322 1334 1345 1354 1363 1369 1374 1376 1379 1380 1382 1386 1392 1398 1394 1403 1408 1410 1413 1411 1419 1419 1408 1412 1412 1416 1412 1412 1415 1404 1400 1403 1400 1403 1404 1406 1408 1411
1212 1212 1211 1209 1208 1209 1212 1217 1225 1233 1243 1254 1268 1283 1298 1313 1326 1338 1345 1354 1362 1369 1375 1379 1380 1383 1380 1383 1389 1394 1395 1397 1399 1401 1406 1405 1408 1405 1410 1403 1403 1407 1410 1410 1414 1398 1400 1399 1398 1399 1401 1404 1405 1407
1219 1216 1215 1214 1215 1216 1220 1224 1230 1239 1250 1264 1278 1292 1306 1319 1330 1338 1346 1354 1365 1372 1375 1375 1375 1382 1382 1383 1383 1386 1392 1396 1397 1401 1401 1403 1404 1399 1397 1397 1397 1396 1402 1401 1400 1397 1400 1397 1394 1395 1397 1399 1401 1404
1230 1225 1223 1222 1223 1226 1229 1236 1243 1253 1264 1277 1288 1301 1312 1322 1332 1342 1351 1359 1364 1370 1373 1374 1373 1375 1378 1381 1381 1385 1388 1390 1393 1396 1398 1397 1396 1398 1399 1397 1387 1392 1390 1395 1387 1382 1390 1388 1388 1391 1394 1394 1397 1399
1244 1240 1238 1237 1238 1242 1247 1252 1259 1268 1278 1288 1298 1308 1318 1327 1336 1344 1357 1361 1363 1367 1374 1375 1370 1369 1372 1375 1375 1380 1384 1388 1391 1389 1391 1390 1390 1394 1393 1383 1381 1383 1383 1383 1382 1385 1385 1385 1385 1384 1388 1391 1392 1395
1257 1255 1254 1254 1256 1259 1263 1269 1275 1283 1291 1299 1309 1317 1326 1334 1344 1352 1356 1357 1363 1369 1374 1373 1360 1357 1361 1368 1370 1375 1380 1383 1388 1389 1386 1385 1386 1388 1387 1379 1375 1377 1378 1379 1379 1380 1381 1380 1380 1380 1385 1386 1389 1393
1270 1270 1269 1270 1272 1275 1279 1284 1289 1296 1303 1310 1318 1326 1334 1342 1348 1353 1356 1359 1363 1374 1376 1372 1360 1359 1359 1360 1362 1371 1374 1380 1381 1382 1382 1381 1383 1385 1375 1372 1373 1375 1374 1375 1374 1375 1376 1375 1376 1377 1379 1386 1387 1387
1280 1281 1283 1284 1286 1288 1292 1296 1301 1307 1313 1320 1327 1335 1342 1348 1352 1353 1355 1358 1364 1369 1369 1367 1359 1353 1350 1353 1359 1366 1370 1375 1376 1375 1376 1377 1374 1371 1365 1367 1369 1369 1369 1370 1371 1372 1373 1372 1371 1374 1378 1380 1387 1386
1289 1291 1292 1295 1298 1300 1303 1306 1310 1313 1318 1326 1334 1340 1346 1348 1349 1353 1360 1364 1367 1367 1364 1360 1355 1353 1354 1355 1360 1362 1365 1369 1370 1370 1371 1370 1360 1364 1369 1368 1367 1366 1366 1367 1369 1370 1369 1368 1369 1369 1373 1382 1383 1389
1297 1299 1301 1303 1307 1311 1314 1317 1320 1324 1328 1334 1339 1342 1345 1348 1351 1353 1357 1358 1357 1357 1355 1355 1359 1359 1357 1355 1357 1360 1361 1366 1361 1365 1363 1360 1361 1368 1372 1368 1366 1365 1365 1363 1365 1364 1365 1367 1367 1371 1376 1378 1381 1388
1306 1307 1308 1312 1316 1319 1323 1326 1330 1333 1335 1337 1340 1345 1350 1352 1353 1354 1353 1355 1349 1347 1348 1350 1354 1357 1359 1353 1352 1360 1359 1365 1358 1365 1362 1359 1380 1378 1374 1369 1366 1366 1364 1364 1364 1364 1363 1364 1367 1371 1376 1381 1384 1387
1315 1315 1318 1321 1325 1329 1332 1336 1338 1339 1340 1344 1346 1349 1351 1352 1351 1348 1345 1343 1339 1342 1346 1344 1349 1353 1354 1353 1357 1359 1358 1361 1368 1365 1375 1383 1385 1378 1373 1370 1368 1367 1366 1365 1364 1364 1365 1369 1373 1374 1374 1378 1382 1387
1323 1324 1325 1329 1334 1336 1338 1340 1342 1341 1342 1343 1346 1349 1349 1347 1347 1347 1346 1343 1339 1339 1342 1344 1348 1349 1354 1356 1359 1355 1365 1364 1361 1367 1378 1387 1385 1379 1376 1373 1371 1369 1368 1367 1368 1368 1370 1373 1376 1376 1382 1383 1387 1392
1329 1331 1333 1337 1338 1339 1341 1343 1344 1344 1344 1350 1353 1354 1356 1360 1357 1355 1353 1350 1348 1345 1345 1346 1349 1353 1357 1357 1360 1361 1361 1370 1380 1389 1393 1394 1390 1384 1380 1377 1376 1376 1375 1373 1375 1376 1378 1379 1380 1383 1388 1392 1395 1401
1333 1336 1339 1341 1343 1345 1346 1347 1347 1350 1356 1361 1367 1367 1367 1364 1362 1358 1355 1351 1349 1347 1348 1349 1351 1354 1361 1364 1368 1377 1374 1391 1401 1404 1403 1398 1391 1387 1385 1383 1382 1380 1380 1381 1383 1385 1386 1388 1390 1394 1399 1404 1408 1411
1336 1338 1341 1343 1346 1348 1349 1350 1354 1362 1368 1372 1377 1377 1374 1370 1367 1361 1356 1351 1347 1348 1351 1357 1363 1372 1370 1375 1390 1401 1408 1414 1414 1410 1405 1399 1396 1393 1391 1389 1389 1388 1388 1389 1391 1393 1395 1397 1400 1403 1407 1413 1416 1420
1336 1340 1343 1345 1348 1351 1354 1357 1363 1373 1380 1383 1381 1382 1380 1377 1372 1366 1361 1354 1350 1353 1359 1370 1379 1387 1396 1400 1411 1421 1420 1418 1415 1413 1409 1404 1401 1398 1397 1396 1396 1396 1396 1397 1400 1401 1405 1407 1408 1413 1417 1420 1423 1426
1338 1342 1344 1346 1349 1353 1359 1367 1371 1381 1389 1389 1389 1384 1382 1379 1375 1370 1364 1359 1358 1358 1366 1384 1401 1414 1421 1426 1426 1424 1421 1419 1418 1417 1413 1411 1408 1406 1405 1404 1404 1405 1405 1407 1409 1411 1413 1415 1418 1421 1423 1425 1428 1431
1342 1346 1350 1352 1353 1356 1365 1374 1377 1383 1389 1393 1391 1390 1389 1388 1386 1379 1372 1368 1365 1369 1389 1411 1425 1431 1429 1429 1427 1425 1423 1421 1422 1421 1419 1418 1417 1414 1413 1413 1414 1415 1414 1416 1417 1419 1421 1423 1425 1427 1428 1430 1432 1434
1347 1351 1354 1355 1357 1360 1370 1377 1383 1388 1391 1393 1394 1393 1395 1393 1388 1388 1386 1389 1387 1408 1425 1434 1436 1436 1434 1433 1432 1430 1427 1424 1423 1425 1427 1425 1425 1424 1423 1423 1424 1424 1423 1425 1426 1428 1429 1429 1432 1433 1434 1434 1435 1437
1351 1356 1357 1358 1362 1369 1377 1383 1386 1390 1394 1399 1400 1402 1406 1408 1409 1411 1414 1411 1427 1439 1441 1443 1443 1442 1440 1437 1435 1433 1432 1431 1431 1431 1432 1431 1431 1431 1432 1432 1431 1430 1430 1433 1434 1433 1434 1435 1435 1436 1436 1437 1437 1437
1355 1357 1358 1362 1367 1376 1390 1388 1390 1395 1397 1402 1405 1409 1414 1419 1423 1425 1432 1442 1448 1450 1448 1448 1446 1445 1444 1443 1442 1441 1440 1439 1438 1439 1440 1439 1439 1440 1439 1438 1437 1437 1437 1439 1438 1438 1438 1439 1439 1438 1439 1438 1437 1436
1358 1360 1364 1369 1376 1387 1390 1395 1398 1400 1404 1407 1411 1419 1425 1428 1431 1437 1448 1455 1458 1455 1453 1452 1452 1452 1451 1449 1448 1448 1449 1448 1447 1446 1447 1447 1446 1445 1445 1444 1443 1442 1442 1443 1442 1442 1442 1441 1440 1439 1437 1436 1435 1435
1362 1376 1376 1382 1386 1389 1396 1402 1405 1405 1412 1415 1418 1424 1430 1432 1436 1446 1453 1459 1460 1459 1457 1456 1456 1456 1456 1456 1455 1454 1454 1453 1453 1452 1452 1452 1451 1451 1449 1448 1447 1447 1446 1446 1444 1444 1442 1442 1441 1440 1439 1438 1438 1437
1376 1387 1387 1391 1395 1396 1403 1407 1412 1416 1416 1421 1427 1432 1433 1436 1443 1452 1457 1461 1461 1460 1459 1460 1460 1460 1459 1460 1460 1458 1458 1458 1458 1456 1456 1455 1454 1454 1453 1452 1451 1450 1449 1448 1447 1446 1445 1444 1443 1442 1441 1440 1438 1437
1385 1393 1396 1399 1401 1403 1410 1416 1419 1420 1423 1426 1431 1433 1435 1442 1450 1458 1461 1461 1462 1461 1460 1460 1462 1463 1463 1462 1462 1462 1462 1462 1461 1460 1459 1458 1457 1456 1455 1455 1453 1452 1451 1449 1448 1447 1446 1445 1444 1442 1441 1439 1437 1435
1394 1399 1402 1407 1408 1411 1416 1421 1425 1429 1432 1435 1437 1443 1444 1447 1453 1459 1460 1460 1461 1462 1462 1462 1462 1463 1464 1464 1464 1464 1463 1463 1462 1461 1460 1459 1458 1457 1456 1455 1454 1452 1451 1450 1449 1447 1447 1445 1444 1442 1441 1439 1437 1435
1402 1406 1408 1413 1415 1421 1428 1431 1434 1438 1439 1439 1441 1447 1451 1454 1456 1459 1460 1461 1462 1463 1463 1463 1464 1464 1465 1465 1465 1465 1464 1463 1463 1462 1461 1460 1459 1459 1457 1456 1454 1453 1452 1450 1449 1448 1446 1445 1444 1442 1440 1438 1436 1434
1409 1410 1414 1421 1426 1433 1438 1437 1439 1439 1440 1442 1444 1449 1453 1456 1457 1458 1460 1461 1462 1463 1463 1464 1465 1465 1466 1466 1466 1465 1464 1464 1463 1462 1461 1461 1460 1459 1457 1456 1454 1453 1452 1450 1449 1448 1446 1445 1443 1441 1439 1438 1436 1433
1411 1414 1421 1429 1437 1442 1442 1442 1442 1443 1443 1446 1447 1451 1453 1457 1458 1459 1460 1461 1462 1463 1464 1465 1465 1466 1466 1466 1465 1465 1464 1463 1462 1461 1461 1460 1459 1458 1456 1455 1453 1452 1451 1449 1448 1447 1445 1444 1442 1440 1438 1436 1434 1431
1416 1420 1426 1434 1443 1445 1445 1446 1447 1449 1450 1452 1454 1454 1455 1457 1459 1459 1460 1461 1462 1463 1464 1465 1465 1465 1465 1465 1464 1464 1463 1462 1462 1461 1460 1459 1458 1456 1455 1454 1452 1451 1450 1448 1447 1445 1444 1442 1440 1439 1437 1434 1432 1430
1424 1426 1429 1435 1442 1444 1445 1447 1448 1451 1452 1454 1455 1455 1456 1457 1458 1458 1459 1460 1462 1463 1463 1464 1464 1464 1464 1464 1463 1463 1462 1461 1460 1460 1459 1457 1456 1455 1453 1452 1451 1449 1448 1447 1446 1444 1442 1441 1439 1437 1435 1432 1430 1427